Skip Page Navigation
NASA JPL Caltech
NASA Logo - Jet Propulsion Laboratory + View the NASA Portal
+ Center for Near-Earth Object Studies
JPL Home Earth Solar System Stars & Galaxies Technology
JPL Solar System Dynamics
BODIES ORBITS EPHEMERIDES TOOLS PHYSICAL DATA DISCOVERY FAQ SITE MAP
IMPORTANT: The SSD Announcement email list is now available. Major changes are coming in the near future, including possible hostname and/or URL changes. To be notified of such changes, subscribe to this email list.

Please visit this page for more details.


JPL Small-Body Database Browser
Search: [ help ]  
32807 Quarenghi (1990 SN28)
Classification: Main-belt Asteroid          SPK-ID: 2032807
Ephemeris | Orbit Diagram | Orbital Elements | Mission Design | Physical Parameters | Discovery Circumstances ]

[ show orbit diagram ]
Orbital Elements at Epoch 2458600.5 (2019-Apr-27.0) TDB
Reference: JPL 16 (heliocentric ecliptic J2000)
 Element Value Uncertainty (1-sigma)   Units 
e .1640469494694971 4.5594e-08  
a 2.300880530586966 8.0117e-09 au
q 1.923428098450416 1.0483e-07 au
i 2.188180989791933 5.7798e-06 deg
node 359.964658341977 0.00011383 deg
peri 322.0892863901889 0.00011597 deg
M 109.0094338816046 2.4414e-05 deg
tp 2458214.487725944079
(2018-Apr-05.98772594)
8.6395e-05 TDB
period 1274.792590988603
3.49
6.6582e-06
1.823e-08
d
yr
n .2823988800568881 1.475e-09 deg/d
Q 2.678332962723516 9.3259e-09 au
  Orbit Determination Parameters
   # obs. used (total)      1179  
   data-arc span      12897 days (35.31 yr)  
   first obs. used      1983-10-07  
   last obs. used      2019-01-28  
   planetary ephem.      DE431  
   SB-pert. ephem.      SB431-N16  
   condition code      0  
   norm. resid. RMS      .54781  
   source      ORB  
   producer      Otto Matic  
   solution date      2019-Jul-13 01:33:40  

Additional Information
 Earth MOID = .910622 au 
 Jupiter MOID = 2.622 au 
 T_jup = 3.572 
[ show covariance matrix ]

Ephemeris | Orbit Diagram | Orbital Elements | Mission Design | Physical Parameters | Discovery Circumstances ]

Physical Parameter Table
Parameter Symbol Value Units Sigma Reference Notes
absolute magnitude H 15.0   n/a MPO358933  
diameter diameter 6.046 km 0.078 urn:nasa:pds:neowise_diameters_albedos::2.0[mainbelt] (http://adsabs.harvard.edu/abs/2011ApJ...741...68M)  
geometric albedo albedo 0.060   0.007 urn:nasa:pds:neowise_diameters_albedos::2.0[mainbelt] (http://adsabs.harvard.edu/abs/2011ApJ...741...68M)  

32807 Quarenghi           Discovered 1990 Sept. 24 by L. V. Zhuravleva and G. R. Kastel' at the Crimean Astrophysical Observatory.
Jacomo Quarenghi (1744-1817) is regarded as one of the best architects in the history of St. Petersburg. He designed the Hermitage theater, the Smolny Institute, the Guards' Manege in St. Petersburg and Alexandre Palace in Tsarskoye Selo.
NOTE: some special characters may not display properly (any characters within {} are an attempt to place the proper accent above a character)
Reference: 20030318/MPCPages.arcLast Updated: 2003-10-02

Alternate Designations
 1990 SN28 = 1983 TQ = 1997 TR17 
Ephemeris | Orbit Diagram | Orbital Elements | Mission Design | Physical Parameters | Discovery Circumstances ]
ABOUT SSD CREDITS/AWARDS PRIVACY/COPYRIGHT GLOSSARY LINKS
FirstGov
(server date/time)  
NASA Home Page
Site Manager:   Ryan S. Park
Webmaster  Alan B. Chamberlin